Lander, WY

5:57 PM MDT on August 22, 2017 (GMT -0600)
Hunt

Weather History for KLND - May, 2013

Change the Weather History Date:

Tuesday, May 7, 2013

  Actual Average Record
Temperature  
Mean Temperature 55 °F 50 °F  
Max Temperature 67 °F 64 °F 85 °F (1934)
Min Temperature 43 °F 38 °F 19 °F (2010)
Degree Days  
Heating Degree Days 10 15  
Month to date heating degree days 143 109  
Since 1 July heating degree days 7203 7363  
Cooling Degree Days 0 0  
Month to date cooling degree days 0 0  
Year to date cooling degree days 0 0  
Growing Degree Days 4 (Base 50)    
Moisture  
Dew Point 34 °F    
Average Humidity 52    
Maximum Humidity 70    
Minimum Humidity 34    
Precipitation  
Precipitation T in 0.07 in 3.35 in (2016)
Month to date precipitation 0.54 0.52  
Year to date precipitation 6.08 4.54  
Snow  
Snow 0.00 in 0.30 in - ()
Month to date snowfall 10.5 2.3  
Since 1 July snowfall 111.1 88.8  
Snow Depth 0.00 in    
Sea Level Pressure  
Sea Level Pressure 29.84 in    
Wind  
Wind Speed 6 mph (South)    
Max Wind Speed 28 mph    
Max Gust Speed 32 mph    
Visibility 10 miles    
Events Rain , Thunderstorm    
T = Trace of Precipitation, MM = Missing Value Source: NWS Daily Summary

Daily Weather History Graph

Daily Weather History Graph

Search for Another Location

Airport or City:

Trip Planner

Search our weather history database for the weather conditions in past years. The results will help you decide how hot, cold, wet, or windy it might be!

Date:

Astronomy

May. 07, 2013 Rise Set
Actual Time 6:00 AM MDT 8:22 PM MDT
Civil Twilight 5:29 AM MDT 8:54 PM MDT
Nautical Twilight 4:50 AM MDT 9:33 PM MDT
Astronomical Twilight 4:06 AM MDT 10:17 PM MDT
Moon 4:40 AM MDT (5/7) 6:23 PM MDT (5/7)
Length of Visible Light 15h 25m
Length of Day
14h 21m
Waning Crescent, 5% of the Moon is Illuminated
May 7
Waning Crescent
May 9
New
May 17
First Quarter
May 24
Full
May 31
Last Quarter

Hourly Weather History & Observations

Time (MDT) Temp. Windchill Dew Point Humidity Pressure Visibility Wind Dir Wind Speed Gust Speed Precip Events Conditions
12:53 AM 54.0 °F - 30.0 °F 40% 29.80 in 10.0 mi WSW 10.4 mph - N/A   Overcast
1:53 AM 51.1 °F - 30.9 °F 46% 29.81 in 10.0 mi Calm Calm - N/A   Clear
2:53 AM 48.0 °F - 30.0 °F 50% 29.81 in 10.0 mi WSW 11.5 mph - N/A   Clear
3:53 AM 48.9 °F - 28.9 °F 46% 29.79 in 10.0 mi WSW 12.7 mph - N/A   Clear
4:53 AM 44.1 °F 42.5 °F 30.9 °F 60% 29.81 in 10.0 mi South 3.5 mph - N/A   Clear
5:53 AM 46.0 °F - 28.9 °F 51% 29.81 in 10.0 mi Calm Calm - N/A   Clear
6:53 AM 43.0 °F 41.3 °F 33.1 °F 68% 29.84 in 10.0 mi NNE 3.5 mph - N/A   Clear
7:53 AM 50.0 °F - 34.0 °F 54% 29.83 in 10.0 mi Calm Calm - N/A   Clear
8:53 AM 53.1 °F - 36.0 °F 52% 29.83 in 10.0 mi ESE 4.6 mph - N/A   Clear
9:53 AM 57.9 °F - 32.0 °F 37% 29.81 in 10.0 mi Calm Calm - N/A   Clear
10:53 AM 60.1 °F - 33.1 °F 36% 29.81 in 10.0 mi Variable 3.5 mph - N/A   Clear
11:53 AM 64.9 °F - 35.1 °F 33% 29.78 in 10.0 mi Variable 4.6 mph - N/A   Clear
12:53 PM 66.0 °F - 34.0 °F 30% 29.76 in 10.0 mi North 5.8 mph - N/A Thunderstorm Thunderstorm
1:43 PM 60.8 °F - 37.4 °F 42% 29.91 in 10.0 mi SSE 19.6 mph - N/A Thunderstorm Thunderstorm
1:53 PM 59.0 °F - 36.0 °F 42% 29.79 in 10.0 mi SSE 16.1 mph - N/A   Mostly Cloudy
2:00 PM 59.0 °F - 35.6 °F 42% 29.91 in 10.0 mi SSE 16.1 mph - N/A Thunderstorm Thunderstorm
2:53 PM 62.1 °F - 35.1 °F 37% 29.78 in 10.0 mi SW 9.2 mph - N/A Thunderstorm Thunderstorm
3:20 PM 66.2 °F - 35.6 °F 32% 29.90 in 10.0 mi Variable 5.8 mph - N/A   Clear
3:43 PM 66.2 °F - 33.8 °F 30% 29.90 in 10.0 mi Variable 3.5 mph - N/A Thunderstorm Thunderstorm
3:53 PM 66.9 °F - 34.0 °F 30% 29.76 in 10.0 mi Variable 4.6 mph - N/A Thunderstorm Thunderstorm
4:18 PM 66.2 °F - 30.2 °F 26% 29.90 in 10.0 mi Calm Calm - N/A   Mostly Cloudy
4:43 PM 60.8 °F - 37.4 °F 42% 29.91 in 10.0 mi East 19.6 mph - N/A   Overcast
4:53 PM 57.9 °F - 37.0 °F 46% 29.83 in 10.0 mi East 28.8 mph 32.2 mph 0.00 in Rain Light Rain
5:07 PM 57.2 °F - 35.6 °F 44% 29.92 in 10.0 mi East 20.7 mph 27.6 mph 0.00 in Thunderstorm Thunderstorm
5:23 PM 55.4 °F - 35.6 °F 47% 29.92 in 10.0 mi ESE 13.8 mph - 0.00 in Thunderstorm Thunderstorm
5:53 PM 57.0 °F - 36.0 °F 45% 29.83 in 10.0 mi SSE 8.1 mph - 0.00 in   Overcast
6:53 PM 57.0 °F - 35.1 °F 44% 29.84 in 10.0 mi SSW 4.6 mph - N/A   Scattered Clouds
7:15 PM 57.2 °F - 33.8 °F 41% 29.93 in 10.0 mi SW 5.8 mph - N/A Thunderstorm Thunderstorm
7:40 PM 57.2 °F - 32.0 °F 38% 29.93 in 10.0 mi SSW 5.8 mph - N/A   Clear
7:53 PM 57.0 °F - 33.1 °F 40% 29.83 in 10.0 mi SSW 4.6 mph - N/A   Clear
8:53 PM 55.9 °F - 33.1 °F 42% 29.83 in 10.0 mi WSW 8.1 mph - N/A   Mostly Cloudy
9:53 PM 54.0 °F - 35.1 °F 49% 29.85 in 10.0 mi Calm Calm - N/A   Overcast
10:53 PM 53.1 °F - 35.1 °F 50% 29.87 in 10.0 mi Calm Calm - N/A   Overcast
11:53 PM 48.9 °F - 37.0 °F 64% 29.87 in 10.0 mi Calm Calm - N/A   Mostly Cloudy